Dodge City, KS

5:14 PM CDT on September 24, 2017 (GMT -0500)
Dodge City Regional

Weather History for KDDC - February, 2013

Change the Weather History Date:

Sunday, February 3, 2013

  Actual Average Record
Temperature  
Mean Temperature 46 °F -  
Max Temperature 63 °F 44 °F 77 °F (1934)
Min Temperature 28 °F 21 °F -13 °F (1989)
Degree Days  
Heating Degree Days 20    
Moisture  
Dew Point 22 °F    
Average Humidity 42    
Maximum Humidity 69    
Minimum Humidity 13    
Precipitation  
Precipitation 0.00 in - - ()
Sea Level Pressure  
Sea Level Pressure 30.08 in    
Wind  
Wind Speed 9 mph (South)    
Max Wind Speed 24 mph    
Max Gust Speed 33 mph    
Visibility 10 miles    
Events      
Averages and records for this station are not official NWS values.
T = Trace of Precipitation, MM = Missing Value Source: NWS Daily Summary

Daily Weather History Graph

Daily Weather History Graph

Search for Another Location

Airport or City:

Trip Planner

Search our weather history database for the weather conditions in past years. The results will help you decide how hot, cold, wet, or windy it might be!

Date:

Astronomy

Feb. 03, 2013 Rise Set
Actual Time 7:41 AM CST 6:06 PM CST
Civil Twilight 7:14 AM CST 6:33 PM CST
Nautical Twilight 6:43 AM CST 7:04 PM CST
Astronomical Twilight 6:12 AM CST 7:35 PM CST
Moon 1:11 AM CST (2/3) 11:45 AM CST (2/3)
Length of Visible Light 11h 19m
Length of Day
10h 24m
Waning Gibbous, 48% of the Moon is Illuminated
Feb 3
Waning Gibbous
Feb 10
New
Feb 17
First Quarter
Feb 25
Full
Mar 4
Last Quarter

Hourly Weather History & Observations

Time (CST) Temp. Windchill Dew Point Humidity Pressure Visibility Wind Dir Wind Speed Gust Speed Precip Events Conditions
12:52 AM 34.0 °F 28.0 °F 21.9 °F 61% 30.30 in 10.0 mi West 6.9 mph - N/A   Clear
1:52 AM 37.9 °F 34.4 °F 21.0 °F 51% 30.27 in 10.0 mi NW 4.6 mph - N/A   Clear
2:52 AM 33.1 °F 27.7 °F 21.0 °F 61% 30.28 in 10.0 mi North 5.8 mph - N/A   Clear
3:52 AM 34.0 °F 31.0 °F 19.9 °F 56% 30.26 in 10.0 mi ENE 3.5 mph - N/A   Clear
4:52 AM 33.1 °F - 19.9 °F 59% 30.26 in 10.0 mi Calm Calm - N/A   Clear
5:52 AM 32.0 °F 25.6 °F 19.0 °F 59% 30.27 in 10.0 mi SE 6.9 mph - N/A   Clear
6:52 AM 28.9 °F 21.9 °F 19.0 °F 67% 30.26 in 10.0 mi East 6.9 mph - N/A   Clear
7:52 AM 28.0 °F 20.8 °F 19.0 °F 69% 30.27 in 10.0 mi SE 6.9 mph - N/A   Clear
8:52 AM 35.1 °F 27.4 °F 23.0 °F 61% 30.25 in 10.0 mi SE 10.4 mph - N/A   Clear
9:52 AM 39.9 °F 32.1 °F 24.1 °F 53% 30.22 in 10.0 mi SSE 13.8 mph - N/A   Clear
10:52 AM 46.0 °F 38.3 °F 21.0 °F 37% 30.19 in 10.0 mi SSE 20.7 mph 26.5 mph N/A   Clear
11:52 AM 48.9 °F - 21.9 °F 35% 30.15 in 10.0 mi South 24.2 mph - N/A   Clear
12:52 PM 52.0 °F - 21.9 °F 31% 30.08 in 10.0 mi South 20.7 mph 31.1 mph N/A   Clear
1:52 PM 57.0 °F - 21.9 °F 26% 29.99 in 10.0 mi South 24.2 mph 33.4 mph N/A   Clear
2:52 PM 60.1 °F - 23.0 °F 24% 29.94 in 10.0 mi South 19.6 mph - N/A   Clear
3:52 PM 61.0 °F - 21.9 °F 22% 29.89 in 10.0 mi South 11.5 mph - N/A   Clear
4:52 PM 60.1 °F - 18.0 °F 20% 29.88 in 10.0 mi SSW 18.4 mph 29.9 mph N/A   Clear
5:52 PM 55.0 °F - 21.0 °F 27% 29.88 in 10.0 mi SSW 8.1 mph - N/A   Clear
6:52 PM 48.9 °F - 19.9 °F 32% 29.89 in 10.0 mi South 5.8 mph - N/A   Clear
7:52 PM 48.0 °F - 21.0 °F 34% 29.87 in 10.0 mi South 4.6 mph - N/A   Clear
8:52 PM 46.9 °F - 21.9 °F 37% 29.86 in 10.0 mi SSW 3.5 mph - N/A   Clear
9:52 PM 43.0 °F 40.3 °F 24.1 °F 47% 29.84 in 10.0 mi SSW 4.6 mph - N/A   Clear
10:52 PM 46.0 °F 41.9 °F 24.1 °F 42% 29.83 in 10.0 mi SW 8.1 mph - N/A   Clear
11:52 PM 41.0 °F - 25.0 °F 53% 29.82 in 10.0 mi Calm Calm - N/A   Clear